Regional Weather Roundup
Issued by NWS Mobile, AL

Home | Current Version | Previous Version | Text Only | Print | Product List | Glossary On
Versions: 1 2 3 4 5 6 7 8 9 10 11 12 13 14 15 16 17 18 19 20 21 22 23 24 25 26 27 28 29 30 31 32 33 34 35 36 37 38 39 40 41 42 43 44 45 46 47 48 49
784
ASUS44 KMOB 081812
RWRMOB
REGIONAL WEATHER ROUNDUP
NATIONAL WEATHER SERVICE MOBILE AL
1200 PM CST MON FEB 08 2016

NOTE: "FAIR" INDICATES FEW OR NO CLOUDS BELOW 12,000 FEET WITH NO
      SIGNIFICANT WEATHER AND/OR OBSTRUCTIONS TO VISIBILITY.

  * THESE STATIONS ARE PART OF THE UNIVERSITY OF SOUTH ALABAMA
    MESONET AND ARE NOT UNDER NWS OR FAA QUALITY CONTROL.

ALZ061>064-081900-
COASTAL ALABAMA

CITY           SKY/WX    TMP DP  RH WIND       PRES   REMARKS
MOBILE REG APT MOSUNNY   58  32  37 W17G26    29.96F
6HR MIN TEMP:  41; 6HR MAX TEMP:  58;

BROOKLEY FIELD LGT RAIN  59  28  30 W17G29    29.97F
6HR MIN TEMP:  44; 6HR MAX TEMP:  60; 6HR PCP: TRACE;

USA CAMPUS*    NOT AVBL
DOG RIVER*     NOT AVBL


CITY           SKY/WX    TMP DP  RH WIND       PRES   REMARKS
MOUNT VERNON*  NOT AVBL
SARALAND*      NOT AVBL
BAY MINETTE*   NOT AVBL
LOXLEY*        NOT AVBL
ROBERTSDALE*   NOT AVBL
FAIRHOPE*      NOT AVBL
ELBERTA*       NOT AVBL
FOLEY*         NOT AVBL
GRAND BAY*     NOT AVBL
DAUPHIN ISLND* NOT AVBL
BON SCOUR NWR* NOT AVBL
GULF SHORES    SUNNY     58  41  52 W24G32    29.95F

$$

ALZ051>060-081900-
INTERIOR SOUTHWEST AND SOUTH CENTRAL ALABAMA

CITY           SKY/WX    TMP DP  RH WIND       PRES   REMARKS
GREENVILLE     NOT AVBL
EVERGREEN      PTSUNNY   59  31  34 W12G21    29.91F
6HR MIN TEMP:  35; 6HR MAX TEMP:  59;

CASTLEBERRY*   NOT AVBL
ATMORE*        NOT AVBL
DIXIE*         NOT AVBL
ANDALUSIA/OPP  SUNNY     62  34  35 W10       29.89
6HR MIN TEMP:  43; 6HR MAX TEMP:  62;

ANDALUSIA*     NOT AVBL
FLORALA APT    SUNNY     58  34  40 VRB6      29.90F
6HR MIN TEMP:  39; 6HR MAX TEMP:  58;

FLORALA*       NOT AVBL

$$

FLZ001>006-081900-
WESTERN FLORIDA PANHANDLE

CITY           SKY/WX    TMP DP  RH WIND       PRES   REMARKS
PENSACOLA      SUNNY     62  32  32 W20G31    29.92F
6HR MIN TEMP:  45; 6HR MAX TEMP:  62;

NAS PENSACOLA  NOT AVBL
MILTON         MOSUNNY   61  34  36 W18G24    29.90F
6HR MIN TEMP:  40; 6HR MAX TEMP:  61;

WHTNG S FIELD  MOSUNNY   63  33  32 W12G23    29.91F
6HR MIN TEMP:  42; 6HR MAX TEMP:  64;



CITY           SKY/WX    TMP DP  RH WIND       PRES   REMARKS
WALNUT HILL*   NOT AVBL
JAY*           NOT AVBL
DUKE FIELD     MOSUNNY   62  36  36 W21G31    29.87F
CRESTVIEW      MOSUNNY   62  34  35 W15G25    29.91F
6HR MIN TEMP:  34; 6HR MAX TEMP:  62;

VALPARAISO     MOSUNNY   61  46  57 W14G26    29.89F
6HR MIN TEMP:  39; 6HR MAX TEMP:  61;

DESTIN         MOSUNNY   61  47  59 W15G28    29.92F
6HR MIN TEMP:  50; 6HR MAX TEMP:  63;


$$

MSZ076-079-081900-
INTERIOR SOUTHEAST MISSISSIPPI

CITY           SKY/WX    TMP DP  RH WIND       PRES   REMARKS
LEAKESVILLE*   NOT AVBL
AGRICOLA*      NOT AVBL

$$

MARINE OBSERVATIONS

STATION/POSITION TIME  TEMP    WIND        PRES    WAVE
                       AIR SEA DIR/SP/G            HT/PER
                 (UTC) (F)     (DEG/KT/KT) (MB)    (FT/S)
PASCAGOULA       1700   56     260/ 12/ 17 1016.2F
PETIT BOIS ISLND 1700   55     270/ 21/ 27 1017.1F
KATRINA CUT      1700   53     270/ 23       N/A
CEDAR POINT      1700   52     270/ 23     1015.6F
E DAUPHIN ISLAND 1700   55     250/ 18/ 25 1015.9F
MIDDLE BAY LIGHT 1700          280/ 18     1015.2F
USCG MOBILE BAY  1700   57 55  300/  8/ 15 1015.8F
STATE DOCKS      1700   60 53              1015.0F
MEAHER PARK      1700   54     250/  9     1015.2F
WEEKS BAY        1600   56                   N/A
FORT MORGAN      1700   54     280/ 23/ 26 1015.3F
12 S ORANGE BCH  1750   57 62  260/ 25/ 29 1013.8F   5/ 6
PENSACOLA BAY    1700   61 51  260/  8/ 14 1015.0F

$$

SELECTED LOCATIONS ACROSS THE REGION

CITY           SKY/WX    TMP DP  RH WIND       PRES   REMARKS
NEW ORLEANS    MOSUNNY   60  22  23 NW23G32   30.08F
GULFPORT       SUNNY     58  28  32 W21G31    30.01F
PASCAGOULA AP  SUNNY     60  27  28 W14G25    29.98F
PASCAGOULA*    NOT AVBL
HATTIESBURG    MOSUNNY   56  20  24 W20G31    30.02F
LAUREL         SUNNY     54  23  30 NW14G28   30.02F
MERIDIAN       MOSUNNY   53  19  26 W22G30    29.96F
JACKSON        MOSUNNY   51  22  31 W18       30.02F
MONTGOMERY     MOSUNNY   54  29  38 W17G24    29.90F
TROY           PTSUNNY   55  31  39 W12G20    29.88F
KINSTON*       NOT AVBL
GENEVA*        NOT AVBL
ASHFORD*       NOT AVBL
DOTHAN         MOSUNNY   57  38  48 W18G24    29.90F
PANAMA CITY    MOSUNNY   63  45  51 SW25G39   29.89F

$$





USA.gov is the U.S. government's official web portal to all federal, state and local government web resources and services.